(248768) = 2006 RA92

Discovered at Kitt Peak on 2006-09-15 by Spacewatch.

Orbit

Orbit type: Main Belt

Note: WebGL enabled browser required.

epoch2023-02-25.0
epoch JD2460000.5
perihelion date2019-10-27.21679
perihelion JD2458783.71679
argument of perihelion (°)331.04320
ascending node (°)357.31742
inclination (°)4.64405
eccentricity0.1147503
perihelion distance (AU)2.4168550
Tisserand w.r.t. Jupiter3.3
ΔV w.r.t. Earth (km/sec)9.8
semimajor axis (AU)2.7301394
mean anomaly (°)265.85193
mean daily motion (°/day)0.21848750
aphelion distance (AU)3.043
period (years)4.51
P-vector [x]0.85144102
P-vector [y]-0.46423524
P-vector [z]-0.24399554
Q-vector [x]0.52443667
Q-vector [y]0.75030100
Q-vector [z]0.40251034
absolute magnitude16.74
phase slope0.15
uncertainty0
referenceMPO 745323
observations used249
oppositions15
arc length (days)7995
first opposition used2001
last opposition used2023
residual rms (arc-secs)0.73
perturbers coarse indicatorM-v
perturbers precise indicator003Ek
first observation date used2001-07-22.0
last observation date used2023-06-12.0
computer nameMPCLINUX
JD of orbit computation2456877.798401
perihelion JD uncertainty (days)1.5985E-04
argument of perihelion uncertainty (°)7.1729E-05
ascending node uncertainty (°)6.3870E-05
inclination uncertainty (°)4.5796E-06
eccentricity uncertainty 4.5219E-08
perihelion distance uncertainty (AU)1.4078E-07
Minimum Orbit Intersection Distances (in AU)
for orbit epoch: 2460000.5, reference: E2023-L69
Mercury2.00135
Venus1.68899
Earth1.40559
Mars1.03379
Jupiter2.26939
Saturn6.13563
Uranus15.4103
Neptune27.2202

Observations

255 total observations over interval: 2001 07 22.24091 – 2023 06 12.379616
These data are available for download (format description).

Date (UT) J2000 RA J2000 Dec Magn Location Ref
2001 07 22.24091 21 01 07.68 -23 25 53.3 20.3   644 – Palomar Mountain/NEAT MPS 218724
2001 07 22.25127 21 01 07.11 -23 25 54.5 20.2   644 – Palomar Mountain/NEAT MPS 218724
2001 07 22.26294 21 01 06.50 -23 25 57.0 20.0   644 – Palomar Mountain/NEAT MPS 218724
2001 08 24.68805 20 32 10.83 -24 08 44.4 20.2 R 413 – Siding Spring Observatory MPS 218724
2001 08 24.69052 20 32 10.74 -24 08 44.1 20.0 R 413 – Siding Spring Observatory MPS 218724
2001 08 24.69300 20 32 10.66 -24 08 44.2 20.0 R 413 – Siding Spring Observatory MPS 218724
2006 09 15.40334 01 13 25.19 +09 26 26.0   691 – Steward Observatory, Kitt Peak-Spacewatch MPS 179571
2006 09 15.42066 01 13 24.50 +09 26 24.6   691 – Steward Observatory, Kitt Peak-Spacewatch MPS 179571
2006 09 15.43805 01 13 23.78 +09 26 23.2   691 – Steward Observatory, Kitt Peak-Spacewatch MPS 179571
2006 09 19.30041 01 10 45.37 +09 20 07.6 20.1 V 691 – Steward Observatory, Kitt Peak-Spacewatch MPS 179571
2006 09 19.31780 01 10 44.57 +09 20 05.7 20.0 V 691 – Steward Observatory, Kitt Peak-Spacewatch MPS 179571
2006 09 19.33513 01 10 43.80 +09 20 03.6 20.1 V 691 – Steward Observatory, Kitt Peak-Spacewatch MPS 179571
2006 09 26.30775 01 05 16.48 +09 04 07.7 19.9 V 691 – Steward Observatory, Kitt Peak-Spacewatch MPS 181256
2006 09 26.32513 01 05 15.57 +09 04 04.8 19.9 V 691 – Steward Observatory, Kitt Peak-Spacewatch MPS 181256
2006 09 26.34257 01 05 14.68 +09 04 02.1 19.9 V 691 – Steward Observatory, Kitt Peak-Spacewatch MPS 181256
2006 09 30.30300 01 01 51.65 +08 52 45.8 19.9 V 691 – Steward Observatory, Kitt Peak-Spacewatch MPS 182849
2006 09 30.32035 01 01 50.73 +08 52 42.7 20.0 V 691 – Steward Observatory, Kitt Peak-Spacewatch MPS 182849
2006 09 30.33770 01 01 49.74 +08 52 39.6 20.4 V 691 – Steward Observatory, Kitt Peak-Spacewatch MPS 182849
2006 10 17.22109 00 46 53.94 +07 55 15.1 19.8 V 703 – Catalina Sky Survey MPS 183033
2006 10 17.22890 00 46 53.50 +07 55 13.2 19.6 V 703 – Catalina Sky Survey MPS 183033
2006 10 17.23670 00 46 53.07 +07 55 11.9 20.1 V 703 – Catalina Sky Survey MPS 183033
2006 10 17.24446 00 46 52.68 +07 55 09.5 19.7 V 703 – Catalina Sky Survey MPS 183034
2006 10 19.27190 00 45 11.66 +07 48 07.2 19.8 V G96 – Mt. Lemmon Survey MPS 183034
2006 10 19.27790 00 45 11.34 +07 48 05.8 19.6 V G96 – Mt. Lemmon Survey MPS 183034
2006 10 19.28387 00 45 11.05 +07 48 04.9 19.6 V G96 – Mt. Lemmon Survey MPS 183034
2006 10 19.28993 00 45 10.72 +07 48 03.4 19.7 V G96 – Mt. Lemmon Survey MPS 183034
2008 01 01.34792 08 12 50.72 +26 14 21.7 20.5 V 691 – Steward Observatory, Kitt Peak-Spacewatch MPS 284406
2008 01 01.36558 08 12 49.77 +26 14 24.8 20.6 V 691 – Steward Observatory, Kitt Peak-Spacewatch MPS 284406
2008 01 01.38325 08 12 48.82 +26 14 27.6 20.6 V 691 – Steward Observatory, Kitt Peak-Spacewatch MPS 284406
2009 03 31.30936 12 56 21.66 -08 13 51.5 20.7 V G96 – Mt. Lemmon Survey MPS 282578
2009 03 31.31883 12 56 21.19 -08 13 49.3 21.2 V G96 – Mt. Lemmon Survey MPS 282578
2009 03 31.32841 12 56 20.61 -08 13 46.9 20.7 V G96 – Mt. Lemmon Survey MPS 282578
2009 03 31.33802 12 56 20.14 -08 13 45.2 21.1 V G96 – Mt. Lemmon Survey MPS 282578
2009 04 28.22455 12 33 46.00 -06 26 20.0 21.0 V G96 – Mt. Lemmon Survey MPS 285697
2009 04 28.23002 12 33 45.82 -06 26 18.4 21.0 V G96 – Mt. Lemmon Survey MPS 285697
2009 04 28.23543 12 33 45.61 -06 26 16.5 21.1 V G96 – Mt. Lemmon Survey MPS 285697
2009 04 28.24081 12 33 45.43 -06 26 15.6 20.8 V G96 – Mt. Lemmon Survey MPS 285697
2010 04 22.884558 20 26 32.77 -24 16 59.2   C51 – WISE MPS 341886
2010 04 23.016862 20 26 42.28 -24 16 37.2   C51 – WISE MPS 341886
2010 04 23.149167 20 26 51.89 -24 16 17.7   C51 – WISE MPS 341886
2010 04 23.479991 20 27 15.331 -24 15 27.86   C51 – WISE MPS 903757
2010 04 23.546080 20 27 20.21 -24 15 15.3   C51 – WISE MPS 341886
2010 04 23.612295 20 27 24.92 -24 15 04.1   C51 – WISE MPS 341886
2010 04 23.744600 20 27 34.31 -24 14 42.2   C51 – WISE MPS 341886
2010 04 23.87690 20 27 43.71 -24 14 24.8   C51 – WISE MPS 341886
2010 04 24.141513 20 28 02.46 -24 13 43.0   C51 – WISE MPS 341886
2010 07 17.69637 20 46 03.18 -24 43 22.3 19.8 V E12 – Siding Spring Survey MPS 341886
2010 07 17.70926 20 46 02.56 -24 43 24.5 19.9 V E12 – Siding Spring Survey MPS 341886
2010 07 17.72206 20 46 01.88 -24 43 26.4 20.0 V E12 – Siding Spring Survey MPS 341886
2010 08 13.57379 20 21 34.59 -25 26 10.9 19.2 V E12 – Siding Spring Survey MPS 344916
2010 08 13.58361 20 21 34.16 -25 26 12.6 20.2 V E12 – Siding Spring Survey MPS 344916
2010 08 13.59348 20 21 33.58 -25 26 12.6 19.6 V E12 – Siding Spring Survey MPS 344916
2010 08 13.60338 20 21 33.01 -25 26 10.5 18.4 V E12 – Siding Spring Survey MPS 344916
2010 08 18.325623 20 17 54.664 -25 25 30.42 19.92 i F51 – Pan-STARRS 1, Haleakala MPS 366765
2010 08 18.336607 20 17 54.152 -25 25 30.09 19.69 i F51 – Pan-STARRS 1, Haleakala MPS 366765
2010 08 18.351438 20 17 53.472 -25 25 29.75 19.92 r F51 – Pan-STARRS 1, Haleakala MPS 366765
2010 08 18.362466 20 17 52.966 -25 25 29.52 19.69 r F51 – Pan-STARRS 1, Haleakala MPS 366765
2011 10 27.42393 05 04 30.32 +28 51 23.7 20.6 V G96 – Mt. Lemmon Survey MPS 398004
2011 10 27.43088 05 04 30.14 +28 51 24.7 21.0 V G96 – Mt. Lemmon Survey MPS 398004
2011 10 27.43781 05 04 29.96 +28 51 25.2 20.8 V G96 – Mt. Lemmon Survey MPS 398004
2011 10 27.44470 05 04 29.78 +28 51 26.1 20.9 V G96 – Mt. Lemmon Survey MPS 398004
2011 11 17.20696 04 50 13.03 +29 11 56.3 20.4 V 691 – Steward Observatory, Kitt Peak-Spacewatch MPS 400976
2011 11 17.22472 04 50 11.98 +29 11 56.8 20.2 V 691 – Steward Observatory, Kitt Peak-Spacewatch MPS 400976
2011 11 17.24250 04 50 11.02 +29 11 56.7 20.2 V 691 – Steward Observatory, Kitt Peak-Spacewatch MPS 400976
2011 11 28.50294 04 38 51.512 +29 05 07.48 20.4 g F51 – Pan-STARRS 1, Haleakala MPS 403713
2011 11 28.51587 04 38 50.671 +29 05 06.62 20.7 g F51 – Pan-STARRS 1, Haleakala MPS 403713
2011 11 28.53027 04 38 49.727 +29 05 05.35 20.2 r F51 – Pan-STARRS 1, Haleakala MPS 403713
2011 11 28.54319 04 38 48.891 +29 05 04.23 20.2 r F51 – Pan-STARRS 1, Haleakala MPS 403713
2011 11 29.16911 04 38 09.63 +29 04 15.5   691 – Steward Observatory, Kitt Peak-Spacewatch MPS 403713
2011 11 29.18689 04 38 08.54 +29 04 14.5   691 – Steward Observatory, Kitt Peak-Spacewatch MPS 403713
2011 11 29.20469 04 38 07.36 +29 04 13.1   691 – Steward Observatory, Kitt Peak-Spacewatch MPS 403713
2013 02 14.39752 10 35 58.77 +11 55 08.5 20.3 V G96 – Mt. Lemmon Survey MPS 456000
2013 02 14.39810 10 35 58.77 +11 55 08.0 20.6 V G96 – Mt. Lemmon Survey MPS 456000
2013 02 14.40343 10 35 58.45 +11 55 09.6 20.4 V G96 – Mt. Lemmon Survey MPS 456000
2013 02 14.40397 10 35 58.45 +11 55 10.1 20.3 V G96 – Mt. Lemmon Survey MPS 456000
2013 02 14.40926 10 35 58.16 +11 55 11.3 20.5 V G96 – Mt. Lemmon Survey MPS 456000
2013 02 14.40984 10 35 58.16 +11 55 10.8 20.2 V G96 – Mt. Lemmon Survey MPS 456000
2013 02 14.41516 10 35 57.87 +11 55 12.9 20.8 V G96 – Mt. Lemmon Survey MPS 456000
2013 02 14.41574 10 35 57.84 +11 55 12.4 20.1 V G96 – Mt. Lemmon Survey MPS 456000
2014 05 30.34391 15 44 14.003 -26 45 57.26 19.9 w F51 – Pan-STARRS 1, Haleakala MPS 517657
2014 05 30.35448 15 44 13.379 -26 45 55.64 19.9 w F51 – Pan-STARRS 1, Haleakala MPS 517657
2014 05 30.36506 15 44 12.756 -26 45 54.11 19.9 w F51 – Pan-STARRS 1, Haleakala MPS 517657
2014 05 30.37564 15 44 12.124 -26 45 52.62 20.0 w F51 – Pan-STARRS 1, Haleakala MPS 517657
2014 06 27.32443 15 24 22.281 -25 25 59.71 21.4 w F51 – Pan-STARRS 1, Haleakala MPS 521080
2014 06 27.33577 15 24 21.994 -25 25 57.97 21.3 w F51 – Pan-STARRS 1, Haleakala MPS 521080
2014 06 27.34707 15 24 21.710 -25 25 56.14 21.0 w F51 – Pan-STARRS 1, Haleakala MPS 521080
2014 06 27.35849 15 24 21.440 -25 25 54.39 20.8 w F51 – Pan-STARRS 1, Haleakala MPS 521080
2014 07 25.26889 15 25 02.825 -24 43 39.16 21.1 w F51 – Pan-STARRS 1, Haleakala MPS 523607
2014 07 25.27948 15 25 03.072 -24 43 39.02 21.0 w F51 – Pan-STARRS 1, Haleakala MPS 523607
2014 07 25.29006 15 25 03.307 -24 43 38.69 21.0 w F51 – Pan-STARRS 1, Haleakala MPS 523607
2014 07 25.30063 15 25 03.537 -24 43 38.55 21.2 w F51 – Pan-STARRS 1, Haleakala MPS 523607
